{"data":{"norad_id":63661,"epoch":"2026-09-20T12:41:01.418496Z","epoch_age_seconds":150182,"freshness":"FRESH","line1":"1 63661U 25083AD  26263.52848864  .00004857  00000+0  18590-3 0  9993","line2":"2 63661  43.0032 344.9741 0000882 267.9865  92.0886 15.27583238 79899","mean_motion":15.27583238,"eccentricity":8.82e-5,"inclination_deg":43.0032,"raan_deg":344.9741,"arg_perigee_deg":267.9865,"mean_anomaly_deg":92.0886,"bstar":0.0001859,"rev_number":7989,"period_min":94.266548897547,"perigee_km":482.43424456141,"apogee_km":483.64455607842,"semimajor_km":6861.1764003199,"source":"CELESTRAK","updated_at":"2026-09-21T09:00:35.056642Z"}}